NKS1430 KEWR-KFLL

Flight info

Callsign NKS1430
Flight time 2h 18m
Altitude 36000
Route ELVAE NECCK WHITE Q409 CRPLR KOOKI Q161 CHIEZ Y291 MAJIK CUUDA3
Aircraft A21N/M-SDE2E3FGHIRWXY/LB1

Departure

Time 2026-05-06 00:20
Airport Newark Liberty International Airport (KEWR)

Arrival

Time 2026-05-06 02:39
Airport Fort Lauderdale Hollywood International Airport (KFLL)
Time Latitude Longitude Altitude Speed Heading
2026-05-05 23:51 40.68837 -74.17638 20 ft 0 kts 232°
2026-05-06 00:04 40.68838 -74.17638 20 ft 0 kts 232°
2026-05-06 00:04 40.68847 -74.17624 20 ft 2 kts 231°
2026-05-06 00:04 40.68856 -74.17609 20 ft 1 kts 232°
2026-05-06 00:04 40.68861 -74.17599 20 ft 1 kts 214°
2026-05-06 00:05 40.68887 -74.17605 20 ft 0 kts 120°
2026-05-06 00:05 40.68889 -74.17612 20 ft 1 kts 113°
2026-05-06 00:05 40.68890 -74.17615 20 ft 0 kts 115°
2026-05-06 00:12 40.68887 -74.17608 20 ft 1 kts 115°
2026-05-06 00:12 40.68872 -74.17567 20 ft 7 kts 116°
2026-05-06 00:13 40.68847 -74.17501 20 ft 8 kts 116°
2026-05-06 00:13 40.68821 -74.17430 20 ft 8 kts 116°
2026-05-06 00:13 40.68795 -74.17355 19 ft 9 kts 103°
2026-05-06 00:13 40.68834 -74.17287 19 ft 11 kts 29°
2026-05-06 00:14 40.68909 -74.17238 19 ft 12 kts 26°
2026-05-06 00:14 40.68991 -74.17186 19 ft 13 kts 25°
2026-05-06 00:14 40.69080 -74.17131 19 ft 14 kts 25°
2026-05-06 00:14 40.69175 -74.17072 19 ft 15 kts 26°
2026-05-06 00:15 40.69273 -74.17008 19 ft 16 kts 26°
2026-05-06 00:15 40.69376 -74.16943 19 ft 16 kts 26°
2026-05-06 00:15 40.69482 -74.16876 19 ft 17 kts 26°
2026-05-06 00:15 40.69591 -74.16808 19 ft 17 kts 26°
2026-05-06 00:16 40.69702 -74.16737 19 ft 18 kts 26°
2026-05-06 00:16 40.69816 -74.16665 19 ft 18 kts 26°
2026-05-06 00:16 40.69931 -74.16592 19 ft 18 kts 26°
2026-05-06 00:16 40.70029 -74.16526 19 ft 8 kts 27°
2026-05-06 00:17 40.70060 -74.16502 19 ft 3 kts 51°
2026-05-06 00:17 40.70067 -74.16477 19 ft 0 kts 90°
2026-05-06 00:18 40.70067 -74.16473 19 ft 2 kts 94°
2026-05-06 00:19 40.70063 -74.16432 19 ft 5 kts 97°
2026-05-06 00:19 40.70041 -74.16383 19 ft 7 kts 152°
2026-05-06 00:19 40.69983 -74.16395 19 ft 13 kts 202°
2026-05-06 00:19 40.69637 -74.16615 19 ft 96 kts 206°
2026-05-06 00:20 40.68819 -74.17139 93 ft 155 kts 207°
2026-05-06 00:20 40.67797 -74.17782 676 ft 170 kts 206°
2026-05-06 00:20 40.66725 -74.18428 1419 ft 172 kts 205°
2026-05-06 00:20 40.65601 -74.18984 2055 ft 181 kts 200°
2026-05-06 00:21 40.64285 -74.19282 2510 ft 203 kts 191°
2026-05-06 00:21 40.62817 -74.19444 2975 ft 224 kts 189°
2026-05-06 00:21 40.61180 -74.19611 3476 ft 243 kts 192°
2026-05-06 00:21 40.59654 -74.20410 3921 ft 234 kts 222°
2026-05-06 00:22 40.58563 -74.21970 4410 ft 233 kts 228°
2026-05-06 00:22 40.57441 -74.23505 4895 ft 234 kts 226°
2026-05-06 00:22 40.56286 -74.25006 5352 ft 236 kts 226°
2026-05-06 00:22 40.54936 -74.26273 5802 ft 244 kts 207°
2026-05-06 00:23 40.53240 -74.26656 6006 ft 258 kts 184°
2026-05-06 00:23 40.51464 -74.26073 6021 ft 269 kts 167°
2026-05-06 00:23 40.49704 -74.25189 6019 ft 268 kts 168°
2026-05-06 00:23 40.47979 -74.24329 6020 ft 267 kts 168°
2026-05-06 00:24 40.46240 -74.23468 6024 ft 266 kts 168°
2026-05-06 00:24 40.44497 -74.22605 6088 ft 266 kts 168°
2026-05-06 00:24 40.42788 -74.21757 6259 ft 266 kts 168°
2026-05-06 00:24 40.41032 -74.20888 6586 ft 268 kts 168°
2026-05-06 00:25 40.39292 -74.20030 6890 ft 270 kts 168°
2026-05-06 00:25 40.37528 -74.19158 7207 ft 272 kts 167°
2026-05-06 00:25 40.35738 -74.18276 7508 ft 274 kts 167°
2026-05-06 00:25 40.33957 -74.17395 7845 ft 276 kts 167°
2026-05-06 00:26 40.32127 -74.16561 8393 ft 277 kts 174°
2026-05-06 00:26 40.30251 -74.16348 8931 ft 270 kts 191°
2026-05-06 00:26 40.28412 -74.16773 9483 ft 269 kts 199°
2026-05-06 00:26 40.26578 -74.17334 10015 ft 273 kts 199°
2026-05-06 00:27 40.24723 -74.17910 10535 ft 276 kts 199°
2026-05-06 00:27 40.22846 -74.18491 11070 ft 284 kts 198°
2026-05-06 00:27 40.20898 -74.19084 11635 ft 291 kts 198°
2026-05-06 00:27 40.18891 -74.19692 12159 ft 299 kts 198°
2026-05-06 00:28 40.16845 -74.20309 12629 ft 307 kts 197°
2026-05-06 00:28 40.14750 -74.20937 13114 ft 315 kts 197°
2026-05-06 00:28 40.12595 -74.21583 13610 ft 322 kts 197°
2026-05-06 00:28 40.10363 -74.22248 14133 ft 329 kts 197°
2026-05-06 00:29 40.08120 -74.22916 14637 ft 336 kts 197°
2026-05-06 00:29 40.05834 -74.23598 15106 ft 342 kts 197°
2026-05-06 00:29 40.03490 -74.24301 15614 ft 347 kts 197°
2026-05-06 00:29 40.01214 -74.25285 16103 ft 348 kts 206°
2026-05-06 00:30 39.99056 -74.26743 16611 ft 348 kts 214°
2026-05-06 00:30 39.97066 -74.28543 17100 ft 350 kts 218°
2026-05-06 00:30 39.95113 -74.30406 17598 ft 353 kts 218°
2026-05-06 00:30 39.93133 -74.32307 18099 ft 354 kts 218°
2026-05-06 00:31 39.91149 -74.34204 18592 ft 356 kts 218°
2026-05-06 00:31 39.89142 -74.36118 19111 ft 357 kts 218°
2026-05-06 00:31 39.87138 -74.38025 19621 ft 358 kts 219°
2026-05-06 00:31 39.85135 -74.39930 20117 ft 358 kts 219°
2026-05-06 00:32 39.83165 -74.41863 20658 ft 358 kts 221°
2026-05-06 00:32 39.81256 -74.43964 21166 ft 357 kts 224°
2026-05-06 00:32 39.79461 -74.46183 21667 ft 355 kts 227°
2026-05-06 00:32 39.77739 -74.48464 22107 ft 357 kts 228°
2026-05-06 00:33 39.75999 -74.50774 22462 ft 360 kts 228°
2026-05-06 00:33 39.74247 -74.53097 22805 ft 363 kts 228°
2026-05-06 00:33 39.72479 -74.55441 23156 ft 365 kts 228°
2026-05-06 00:33 39.70716 -74.57774 23512 ft 368 kts 228°
2026-05-06 00:34 39.68918 -74.60153 23871 ft 370 kts 228°
2026-05-06 00:34 39.67101 -74.62555 24240 ft 372 kts 228°
2026-05-06 00:34 39.65294 -74.64941 24603 ft 374 kts 228°
2026-05-06 00:34 39.63471 -74.67348 24966 ft 375 kts 228°
2026-05-06 00:35 39.61637 -74.69766 25333 ft 377 kts 228°
2026-05-06 00:35 39.59797 -74.72192 25697 ft 378 kts 228°
2026-05-06 00:35 39.57975 -74.74590 26057 ft 379 kts 228°
2026-05-06 00:35 39.56123 -74.77027 26423 ft 380 kts 228°
2026-05-06 00:36 39.54259 -74.79476 26789 ft 381 kts 228°
2026-05-06 00:36 39.52401 -74.81918 27155 ft 381 kts 228°
2026-05-06 00:36 39.50541 -74.84359 27491 ft 382 kts 228°
2026-05-06 00:36 39.48668 -74.86814 27806 ft 384 kts 228°
2026-05-06 00:37 39.46808 -74.89253 28117 ft 385 kts 228°
2026-05-06 00:37 39.44928 -74.91715 28428 ft 387 kts 228°
2026-05-06 00:37 39.43040 -74.94184 28745 ft 388 kts 229°
2026-05-06 00:37 39.41151 -74.96654 29058 ft 389 kts 229°
2026-05-06 00:38 39.39234 -74.99157 29376 ft 390 kts 229°
2026-05-06 00:38 39.37336 -75.01634 29692 ft 391 kts 229°
2026-05-06 00:38 39.35424 -75.04125 30009 ft 391 kts 229°
2026-05-06 00:38 39.33522 -75.06603 30327 ft 392 kts 229°
2026-05-06 00:39 39.31588 -75.09119 30651 ft 393 kts 229°
2026-05-06 00:39 39.29641 -75.11580 30976 ft 394 kts 227°
2026-05-06 00:39 39.27633 -75.13940 31304 ft 394 kts 227°
2026-05-06 00:39 39.25597 -75.16327 31632 ft 394 kts 227°
2026-05-06 00:40 39.23566 -75.18707 31894 ft 396 kts 227°
2026-05-06 00:40 39.21528 -75.21093 32079 ft 399 kts 227°
2026-05-06 00:40 39.19472 -75.23497 32265 ft 402 kts 227°
2026-05-06 00:40 39.17403 -75.25917 32464 ft 405 kts 227°
2026-05-06 00:41 39.15295 -75.28377 32662 ft 407 kts 227°
2026-05-06 00:41 39.13191 -75.30829 32842 ft 410 kts 227°
2026-05-06 00:41 39.11069 -75.33298 33034 ft 412 kts 227°
2026-05-06 00:41 39.08946 -75.35766 33214 ft 414 kts 227°
2026-05-06 00:42 39.06694 -75.38100 33400 ft 420 kts 222°
2026-05-06 00:42 39.04256 -75.40176 33597 ft 426 kts 217°
2026-05-06 00:42 39.01638 -75.41968 33792 ft 432 kts 211°
2026-05-06 00:42 38.98849 -75.43451 33976 ft 437 kts 206°
2026-05-06 00:43 38.95902 -75.44595 34162 ft 443 kts 200°
2026-05-06 00:43 38.92856 -75.45358 34357 ft 449 kts 194°
2026-05-06 00:43 38.89761 -75.45835 34544 ft 452 kts 192°
2026-05-06 00:43 38.86643 -75.46249 34729 ft 453 kts 192°
2026-05-06 00:44 38.83506 -75.46659 34909 ft 454 kts 192°
2026-05-06 00:44 38.80357 -75.47078 35101 ft 454 kts 192°
2026-05-06 00:44 38.77219 -75.47506 35285 ft 455 kts 193°
2026-05-06 00:44 38.74065 -75.47942 35477 ft 455 kts 192°
2026-05-06 00:45 38.70926 -75.48379 35656 ft 455 kts 193°
2026-05-06 00:45 38.67770 -75.48808 35841 ft 455 kts 193°
2026-05-06 00:45 38.64616 -75.49239 35983 ft 457 kts 193°
2026-05-06 00:46 38.58270 -75.50102 35985 ft 463 kts 192°
2026-05-06 00:46 38.51879 -75.50964 35980 ft 463 kts 193°
2026-05-06 00:47 38.45462 -75.51829 35989 ft 464 kts 193°
2026-05-06 00:47 38.39115 -75.53012 35988 ft 457 kts 200°
2026-05-06 00:48 38.33111 -75.55389 35993 ft 449 kts 209°
2026-05-06 00:48 38.27590 -75.58917 35998 ft 442 kts 219°
2026-05-06 00:49 38.22487 -75.63281 35998 ft 440 kts 222°
2026-05-06 00:49 38.17474 -75.67673 36003 ft 440 kts 221°
2026-05-06 00:50 38.12426 -75.72073 36008 ft 441 kts 221°
2026-05-06 00:50 38.07379 -75.76452 36006 ft 442 kts 221°
2026-05-06 00:51 38.02310 -75.80839 36004 ft 442 kts 221°
2026-05-06 00:51 37.97236 -75.85223 36011 ft 443 kts 221°
2026-05-06 00:52 37.92130 -75.89626 36007 ft 444 kts 221°
2026-05-06 00:52 37.87033 -75.94016 36003 ft 443 kts 221°
2026-05-06 00:53 37.81928 -75.98405 36003 ft 443 kts 221°
2026-05-06 00:53 37.76857 -76.02757 36006 ft 445 kts 221°
2026-05-06 00:54 37.71727 -76.07149 36010 ft 443 kts 221°
2026-05-06 00:54 37.66602 -76.11455 35994 ft 448 kts 219°
2026-05-06 00:55 37.61076 -76.15228 35997 ft 455 kts 212°
2026-05-06 00:55 37.55186 -76.18192 36019 ft 462 kts 205°
2026-05-06 00:56 37.48974 -76.20365 36012 ft 466 kts 201°
2026-05-06 00:56 37.42689 -76.22356 36028 ft 467 kts 201°
2026-05-06 00:57 37.36383 -76.24358 36019 ft 466 kts 201°
2026-05-06 00:57 37.30118 -76.26350 36022 ft 466 kts 201°
2026-05-06 00:58 37.23804 -76.28356 36028 ft 467 kts 201°
2026-05-06 00:58 37.17509 -76.30353 36023 ft 467 kts 201°
2026-05-06 00:59 37.11206 -76.32347 36021 ft 467 kts 201°
2026-05-06 00:59 37.04931 -76.34335 36037 ft 469 kts 201°
2026-05-06 01:00 36.98596 -76.36334 36034 ft 469 kts 201°
2026-05-06 01:00 36.92300 -76.38318 36045 ft 469 kts 201°
2026-05-06 01:01 36.85977 -76.40307 36031 ft 469 kts 201°
2026-05-06 01:01 36.79649 -76.42291 36037 ft 468 kts 202°
2026-05-06 01:02 36.73332 -76.44273 36040 ft 470 kts 202°
2026-05-06 01:02 36.67008 -76.46252 36045 ft 469 kts 202°
2026-05-06 01:03 36.60700 -76.48221 36052 ft 469 kts 202°
2026-05-06 01:03 36.54357 -76.50204 36057 ft 471 kts 202°
2026-05-06 01:04 36.48006 -76.52181 36066 ft 471 kts 201°
2026-05-06 01:04 36.41626 -76.54161 36070 ft 471 kts 202°
2026-05-06 01:05 36.35298 -76.56126 36064 ft 471 kts 201°
2026-05-06 01:05 36.28938 -76.58096 36076 ft 471 kts 202°
2026-05-06 01:06 36.22568 -76.60067 36072 ft 472 kts 202°
2026-05-06 01:06 36.16227 -76.62025 36085 ft 473 kts 202°
2026-05-06 01:07 36.09837 -76.63990 36082 ft 472 kts 202°
2026-05-06 01:07 36.03466 -76.65954 36095 ft 474 kts 201°
2026-05-06 01:08 35.97046 -76.67924 36089 ft 475 kts 201°
2026-05-06 01:08 35.90762 -76.70229 36094 ft 469 kts 208°
2026-05-06 01:09 35.84871 -76.73350 36090 ft 461 kts 214°
2026-05-06 01:09 35.79134 -76.76880 36094 ft 460 kts 214°
2026-05-06 01:10 35.73415 -76.80386 36095 ft 460 kts 215°
2026-05-06 01:10 35.67654 -76.83900 36091 ft 463 kts 215°
2026-05-06 01:11 35.61898 -76.87399 36099 ft 463 kts 214°
2026-05-06 01:11 35.56141 -76.90897 36096 ft 462 kts 215°
2026-05-06 01:12 35.50389 -76.94428 36095 ft 463 kts 215°
2026-05-06 01:12 35.44644 -76.97951 36093 ft 462 kts 215°
2026-05-06 01:13 35.38896 -77.01472 36096 ft 463 kts 215°
2026-05-06 01:13 35.33105 -77.05008 36096 ft 464 kts 215°
2026-05-06 01:14 35.24457 -77.10276 36099 ft 464 kts 215°
2026-05-06 01:14 35.18661 -77.13803 36102 ft 466 kts 215°
2026-05-06 01:15 35.12874 -77.17318 36103 ft 464 kts 215°
2026-05-06 01:15 35.07083 -77.20828 36101 ft 465 kts 215°
2026-05-06 01:16 35.01320 -77.24315 36105 ft 465 kts 215°
2026-05-06 01:16 34.95531 -77.27817 36105 ft 465 kts 215°
2026-05-06 01:17 34.89737 -77.31311 36101 ft 465 kts 215°
2026-05-06 01:17 34.83928 -77.34812 36104 ft 466 kts 215°
2026-05-06 01:18 34.78107 -77.38311 36095 ft 465 kts 215°
2026-05-06 01:18 34.72307 -77.41793 36102 ft 465 kts 216°
2026-05-06 01:19 34.66535 -77.45257 36102 ft 466 kts 216°
2026-05-06 01:19 34.60708 -77.48743 36104 ft 465 kts 216°
2026-05-06 01:20 34.54858 -77.52038 36104 ft 472 kts 211°
2026-05-06 01:20 34.48585 -77.54594 36101 ft 480 kts 204°
2026-05-06 01:21 34.41978 -77.56281 36098 ft 486 kts 198°
2026-05-06 01:21 34.35314 -77.57725 36099 ft 487 kts 199°
2026-05-06 01:22 34.28640 -77.59183 36104 ft 488 kts 199°
2026-05-06 01:22 34.21986 -77.60641 36102 ft 487 kts 199°
2026-05-06 01:23 34.15346 -77.62103 36101 ft 488 kts 199°
2026-05-06 01:23 34.08669 -77.63570 36100 ft 489 kts 199°
2026-05-06 01:24 34.01947 -77.65042 36100 ft 488 kts 198°
2026-05-06 01:24 33.95310 -77.66494 36101 ft 489 kts 198°
2026-05-06 01:25 33.88606 -77.67960 36104 ft 489 kts 198°
2026-05-06 01:25 33.81928 -77.69411 36106 ft 488 kts 198°
2026-05-06 01:26 33.75244 -77.70870 36104 ft 489 kts 198°
2026-05-06 01:26 33.68579 -77.72372 36105 ft 484 kts 201°
2026-05-06 01:27 33.62058 -77.74416 36106 ft 482 kts 204°
2026-05-06 01:27 33.55613 -77.76539 36104 ft 483 kts 204°
2026-05-06 01:28 33.49149 -77.78660 36109 ft 483 kts 204°
2026-05-06 01:28 33.42669 -77.80775 36104 ft 482 kts 204°
2026-05-06 01:29 33.36162 -77.82892 36105 ft 483 kts 204°
2026-05-06 01:29 33.29727 -77.84982 36106 ft 482 kts 204°
2026-05-06 01:30 33.23231 -77.87093 36106 ft 483 kts 204°
2026-05-06 01:30 33.16749 -77.89192 36103 ft 482 kts 204°
2026-05-06 01:31 33.10269 -77.91286 36104 ft 483 kts 204°
2026-05-06 01:31 33.03788 -77.93381 36107 ft 484 kts 204°
2026-05-06 01:32 32.97357 -77.95573 36103 ft 481 kts 205°
2026-05-06 01:32 32.90911 -77.97796 36104 ft 482 kts 205°
2026-05-06 01:33 32.84472 -78.00000 36097 ft 481 kts 205°
2026-05-06 01:33 32.78023 -78.02200 36100 ft 482 kts 205°
2026-05-06 01:34 32.71602 -78.04385 36096 ft 481 kts 205°
2026-05-06 01:34 32.65162 -78.06576 36109 ft 482 kts 205°
2026-05-06 01:35 32.58739 -78.08757 36100 ft 481 kts 205°
2026-05-06 01:35 32.52301 -78.10940 36098 ft 481 kts 205°
2026-05-06 01:36 32.45869 -78.13118 36105 ft 483 kts 205°
2026-05-06 01:36 32.39418 -78.15299 36099 ft 483 kts 205°
2026-05-06 01:37 32.32968 -78.17476 36099 ft 484 kts 205°
2026-05-06 01:37 32.26469 -78.19664 36097 ft 484 kts 205°
2026-05-06 01:38 32.20013 -78.21838 36099 ft 484 kts 205°
2026-05-06 01:38 32.13559 -78.24004 36096 ft 483 kts 205°
2026-05-06 01:39 32.07069 -78.26181 36101 ft 483 kts 205°
2026-05-06 01:39 32.00584 -78.28356 36095 ft 486 kts 205°
2026-05-06 01:40 31.94088 -78.30528 36104 ft 485 kts 205°
2026-05-06 01:40 31.87598 -78.32695 36109 ft 486 kts 205°
2026-05-06 01:41 31.81130 -78.34849 36115 ft 484 kts 205°
2026-05-06 01:41 31.74610 -78.37022 36109 ft 485 kts 205°
2026-05-06 01:42 31.68121 -78.39179 36109 ft 485 kts 205°
2026-05-06 01:42 31.61651 -78.41324 36114 ft 484 kts 205°
2026-05-06 01:43 31.55185 -78.43470 36107 ft 484 kts 205°
2026-05-06 01:43 31.48676 -78.45611 36106 ft 485 kts 205°
2026-05-06 01:44 31.42199 -78.47713 36104 ft 485 kts 205°
2026-05-06 01:44 31.35673 -78.49827 36108 ft 486 kts 204°
2026-05-06 01:45 31.29146 -78.51937 36103 ft 486 kts 204°
2026-05-06 01:45 31.22677 -78.54028 36103 ft 484 kts 205°
2026-05-06 01:46 31.16166 -78.56130 36096 ft 485 kts 205°
2026-05-06 01:46 31.09672 -78.58222 36102 ft 484 kts 205°
2026-05-06 01:47 31.03135 -78.60330 36103 ft 485 kts 205°
2026-05-06 01:47 30.96615 -78.62427 36101 ft 486 kts 204°
2026-05-06 01:48 30.90115 -78.64511 36103 ft 487 kts 205°
2026-05-06 01:48 30.83606 -78.66599 36102 ft 486 kts 204°
2026-05-06 01:49 30.77082 -78.68690 36098 ft 487 kts 204°
2026-05-06 01:49 30.70579 -78.70765 36098 ft 486 kts 204°
2026-05-06 01:50 30.64058 -78.72847 36098 ft 487 kts 204°
2026-05-06 01:50 30.57522 -78.74931 36099 ft 487 kts 204°
2026-05-06 01:51 30.51019 -78.76999 36095 ft 485 kts 204°
2026-05-06 01:51 30.44522 -78.79067 36095 ft 487 kts 204°
2026-05-06 01:52 30.37965 -78.81147 36091 ft 487 kts 204°
2026-05-06 01:52 30.31450 -78.83212 36092 ft 488 kts 204°
2026-05-06 01:53 30.24884 -78.85289 36098 ft 488 kts 204°
2026-05-06 01:53 30.18321 -78.87365 36102 ft 488 kts 204°
2026-05-06 01:54 30.11786 -78.89425 36104 ft 485 kts 205°
2026-05-06 01:54 30.05293 -78.91478 36102 ft 486 kts 204°
2026-05-06 01:55 29.98748 -78.93539 36103 ft 487 kts 204°
2026-05-06 01:55 29.92211 -78.95594 36094 ft 487 kts 204°
2026-05-06 01:56 29.85705 -78.97635 36091 ft 486 kts 205°
2026-05-06 01:56 29.79113 -78.99495 36096 ft 493 kts 199°
2026-05-06 01:57 29.72287 -79.00794 36101 ft 495 kts 198°
2026-05-06 01:57 29.65480 -79.02036 36101 ft 496 kts 198°
2026-05-06 01:58 29.58680 -79.03282 36093 ft 496 kts 198°
2026-05-06 01:58 29.51872 -79.04537 36096 ft 498 kts 198°
2026-05-06 01:59 29.45032 -79.05791 36094 ft 496 kts 198°
2026-05-06 01:59 29.38189 -79.07052 36090 ft 497 kts 198°
2026-05-06 02:00 29.31357 -79.08304 36091 ft 496 kts 198°
2026-05-06 02:00 29.24558 -79.09551 36088 ft 497 kts 198°
2026-05-06 02:01 29.17691 -79.10812 36090 ft 500 kts 198°
2026-05-06 02:01 29.10840 -79.12061 36086 ft 499 kts 198°
2026-05-06 02:02 29.03989 -79.13311 36088 ft 498 kts 198°
2026-05-06 02:02 28.97097 -79.14568 36082 ft 500 kts 198°
2026-05-06 02:03 28.90227 -79.15817 36082 ft 499 kts 198°
2026-05-06 02:03 28.83395 -79.17059 36079 ft 499 kts 198°
2026-05-06 02:04 28.76568 -79.18297 36078 ft 497 kts 198°
2026-05-06 02:04 28.69720 -79.19540 36076 ft 498 kts 198°
2026-05-06 02:05 28.62853 -79.20785 36075 ft 499 kts 198°
2026-05-06 02:05 28.56010 -79.22021 36075 ft 498 kts 198°
2026-05-06 02:06 28.49182 -79.23256 36072 ft 498 kts 198°
2026-05-06 02:06 28.42301 -79.24496 36073 ft 499 kts 198°
2026-05-06 02:07 28.35465 -79.25726 36075 ft 497 kts 199°
2026-05-06 02:07 28.28798 -79.27427 36074 ft 489 kts 205°
2026-05-06 02:08 28.22229 -79.29569 36070 ft 489 kts 206°
2026-05-06 02:08 28.15693 -79.31711 36069 ft 490 kts 206°
2026-05-06 02:09 28.09126 -79.33840 36066 ft 489 kts 206°
2026-05-06 02:09 28.02571 -79.35963 36009 ft 490 kts 206°
2026-05-06 02:10 27.99303 -79.37019 35575 ft 489 kts 206°
2026-05-06 02:10 27.96047 -79.38076 34951 ft 497 kts 205°
2026-05-06 02:10 27.92697 -79.39160 34307 ft 496 kts 205°
2026-05-06 02:10 27.89365 -79.40232 33667 ft 496 kts 205°
2026-05-06 02:11 27.86068 -79.41293 33045 ft 495 kts 205°
2026-05-06 02:11 27.82781 -79.42355 32478 ft 497 kts 204°
2026-05-06 02:11 27.79411 -79.43446 31901 ft 500 kts 204°
2026-05-06 02:11 27.76101 -79.44514 31338 ft 501 kts 204°
2026-05-06 02:12 27.72730 -79.45598 30767 ft 501 kts 204°
2026-05-06 02:12 27.69390 -79.46671 30202 ft 501 kts 203°
2026-05-06 02:12 27.66034 -79.47747 29637 ft 501 kts 203°
2026-05-06 02:12 27.62665 -79.48827 29070 ft 503 kts 203°
2026-05-06 02:13 27.59310 -79.49904 28518 ft 503 kts 202°
2026-05-06 02:13 27.55969 -79.50973 27970 ft 503 kts 202°
2026-05-06 02:13 27.52612 -79.52047 27423 ft 503 kts 202°
2026-05-06 02:13 27.49247 -79.53123 26855 ft 501 kts 202°
2026-05-06 02:14 27.45913 -79.54185 26305 ft 494 kts 202°
2026-05-06 02:14 27.42641 -79.55229 25784 ft 486 kts 202°
2026-05-06 02:14 27.39409 -79.56258 25253 ft 479 kts 202°
2026-05-06 02:14 27.36211 -79.57269 24725 ft 472 kts 201°
2026-05-06 02:15 27.33056 -79.58262 24195 ft 465 kts 201°
2026-05-06 02:15 27.29981 -79.59230 23670 ft 459 kts 201°
2026-05-06 02:15 27.26900 -79.60200 23161 ft 453 kts 201°
2026-05-06 02:15 27.23927 -79.61134 22635 ft 445 kts 201°
2026-05-06 02:16 27.20947 -79.62070 22136 ft 438 kts 201°
2026-05-06 02:16 27.18056 -79.62981 21647 ft 432 kts 201°
2026-05-06 02:16 27.15177 -79.63902 21147 ft 428 kts 201°
2026-05-06 02:16 27.12325 -79.64820 20660 ft 425 kts 201°
2026-05-06 02:17 27.09493 -79.65731 20171 ft 422 kts 200°
2026-05-06 02:17 27.06669 -79.66637 19673 ft 419 kts 200°
2026-05-06 02:17 27.03877 -79.67532 19178 ft 416 kts 200°
2026-05-06 02:17 27.01098 -79.68420 18680 ft 413 kts 199°
2026-05-06 02:18 26.98347 -79.69297 18184 ft 405 kts 199°
2026-05-06 02:18 26.95682 -79.70147 17694 ft 396 kts 199°
2026-05-06 02:18 26.93071 -79.70978 17196 ft 387 kts 199°
2026-05-06 02:18 26.90513 -79.71792 16695 ft 378 kts 199°
2026-05-06 02:19 26.88010 -79.72589 16195 ft 370 kts 199°
2026-05-06 02:19 26.85543 -79.73375 15695 ft 363 kts 199°
2026-05-06 02:19 26.83163 -79.74133 15199 ft 354 kts 199°
2026-05-06 02:19 26.80832 -79.74873 14835 ft 343 kts 199°
2026-05-06 02:20 26.76304 -79.76305 14161 ft 333 kts 199°
2026-05-06 02:20 26.74062 -79.77014 13817 ft 331 kts 199°
2026-05-06 02:20 26.71872 -79.77706 13493 ft 329 kts 198°
2026-05-06 02:21 26.69699 -79.78433 13161 ft 326 kts 201°
2026-05-06 02:21 26.67563 -79.79283 12817 ft 323 kts 202°
2026-05-06 02:21 26.65442 -79.80150 12492 ft 321 kts 202°
2026-05-06 02:21 26.63363 -79.81000 12152 ft 319 kts 203°
2026-05-06 02:22 26.61287 -79.81847 11794 ft 315 kts 203°
2026-05-06 02:22 26.59231 -79.82687 11478 ft 311 kts 202°
2026-05-06 02:22 26.57215 -79.83509 11153 ft 307 kts 203°
2026-05-06 02:22 26.55215 -79.84341 10813 ft 303 kts 205°
2026-05-06 02:23 26.53291 -79.85235 10462 ft 299 kts 205°
2026-05-06 02:23 26.51361 -79.86144 10114 ft 296 kts 206°
2026-05-06 02:23 26.49473 -79.87035 9783 ft 295 kts 205°
2026-05-06 02:23 26.47590 -79.87922 9464 ft 293 kts 206°
2026-05-06 02:24 26.45706 -79.88808 9141 ft 292 kts 206°
2026-05-06 02:24 26.43844 -79.89682 8808 ft 291 kts 205°
2026-05-06 02:24 26.41985 -79.90556 8467 ft 289 kts 205°
2026-05-06 02:24 26.40134 -79.91425 8129 ft 287 kts 205°
2026-05-06 02:25 26.38303 -79.92341 8014 ft 285 kts 209°
2026-05-06 02:25 26.36556 -79.93404 8014 ft 285 kts 212°
2026-05-06 02:25 26.34824 -79.94514 7999 ft 285 kts 212°
2026-05-06 02:25 26.33118 -79.95614 7999 ft 285 kts 212°
2026-05-06 02:26 26.31391 -79.96725 7999 ft 285 kts 212°
2026-05-06 02:26 26.29673 -79.97831 7782 ft 285 kts 212°
2026-05-06 02:26 26.27963 -79.98930 7540 ft 283 kts 212°
2026-05-06 02:26 26.26238 -80.00035 7298 ft 282 kts 212°
2026-05-06 02:27 26.24537 -80.01128 7056 ft 281 kts 212°
2026-05-06 02:27 26.22854 -80.02210 6817 ft 280 kts 212°
2026-05-06 02:27 26.21164 -80.03297 6575 ft 280 kts 212°
2026-05-06 02:27 26.19484 -80.04382 6337 ft 278 kts 213°
2026-05-06 02:28 26.18070 -80.05795 6132 ft 275 kts 236°
2026-05-06 02:28 26.17242 -80.07712 5945 ft 273 kts 252°
2026-05-06 02:28 26.16657 -80.09708 5750 ft 269 kts 253°
2026-05-06 02:28 26.16098 -80.11652 5552 ft 261 kts 253°
2026-05-06 02:29 26.15540 -80.13562 5352 ft 253 kts 254°
2026-05-06 02:29 26.15141 -80.15426 5158 ft 250 kts 263°
2026-05-06 02:29 26.15006 -80.17358 4966 ft 250 kts 270°
2026-05-06 02:29 26.15009 -80.19310 4772 ft 249 kts 272°
2026-05-06 02:30 26.15032 -80.21237 4580 ft 249 kts 272°
2026-05-06 02:30 26.15052 -80.23156 4416 ft 250 kts 271°
2026-05-06 02:30 26.15068 -80.25092 4246 ft 250 kts 271°
2026-05-06 02:30 26.15080 -80.27018 4072 ft 245 kts 272°
2026-05-06 02:31 26.15116 -80.28894 4004 ft 239 kts 272°
2026-05-06 02:31 26.15160 -80.30743 4000 ft 240 kts 273°
2026-05-06 02:31 26.15207 -80.32594 3995 ft 240 kts 273°
2026-05-06 02:31 26.15253 -80.34446 3995 ft 239 kts 273°
2026-05-06 02:32 26.15258 -80.36302 3987 ft 239 kts 264°
2026-05-06 02:32 26.14666 -80.37980 3959 ft 232 kts 230°
2026-05-06 02:32 26.13373 -80.39024 3978 ft 231 kts 198°
2026-05-06 02:32 26.11796 -80.39243 3860 ft 225 kts 178°
2026-05-06 02:33 26.10261 -80.39135 3713 ft 215 kts 174°
2026-05-06 02:33 26.09267 -80.39030 3607 ft 207 kts 173°
2026-05-06 02:33 26.06973 -80.36983 3110 ft 187 kts 106°
2026-05-06 02:34 26.06742 -80.35615 3011 ft 175 kts 94°
2026-05-06 02:34 26.06689 -80.34310 2995 ft 165 kts 89°
2026-05-06 02:34 26.06687 -80.33037 2886 ft 161 kts 88°
2026-05-06 02:34 26.06689 -80.31836 2671 ft 152 kts 88°
2026-05-06 02:35 26.06686 -80.30676 2492 ft 148 kts 88°
2026-05-06 02:35 26.06681 -80.29552 2307 ft 144 kts 88°
2026-05-06 02:35 26.06673 -80.28449 2136 ft 143 kts 88°
2026-05-06 02:35 26.06665 -80.27337 1962 ft 142 kts 88°
2026-05-06 02:36 26.06657 -80.26245 1785 ft 141 kts 88°
2026-05-06 02:36 26.06648 -80.25157 1600 ft 140 kts 88°
2026-05-06 02:36 26.06640 -80.24088 1422 ft 140 kts 88°
2026-05-06 02:36 26.06633 -80.23000 1240 ft 140 kts 88°
2026-05-06 02:37 26.06626 -80.21916 1058 ft 140 kts 88°
2026-05-06 02:37 26.06619 -80.20828 876 ft 140 kts 88°
2026-05-06 02:37 26.06612 -80.19760 696 ft 138 kts 89°
2026-05-06 02:37 26.06606 -80.18683 518 ft 139 kts 88°
2026-05-06 02:38 26.06603 -80.17625 352 ft 139 kts 89°
2026-05-06 02:38 26.06598 -80.16546 172 ft 135 kts 89°
2026-05-06 02:38 26.06585 -80.15498 16 ft 129 kts 90°
2026-05-06 02:38 26.06583 -80.14633 12 ft 91 kts 91°
2026-05-06 02:39 26.06577 -80.14066 12 ft 49 kts 91°
2026-05-06 02:39 26.06589 -80.13858 12 ft 17 kts 73°
2026-05-06 02:39 26.06654 -80.13754 12 ft 16 kts 45°
2026-05-06 02:39 26.06724 -80.13731 12 ft 10 kts 338°
2026-05-06 02:40 26.06744 -80.13774 12 ft 7 kts 273°
2026-05-06 02:40 26.06745 -80.13834 12 ft 8 kts 271°
2026-05-06 02:40 26.06745 -80.13902 12 ft 9 kts 269°
2026-05-06 02:40 26.06742 -80.13979 12 ft 10 kts 262°
2026-05-06 02:41 26.06710 -80.14063 12 ft 13 kts 241°
2026-05-06 02:41 26.06688 -80.14168 12 ft 14 kts 270°
2026-05-06 02:41 26.06690 -80.14280 12 ft 14 kts 271°
2026-05-06 02:41 26.06691 -80.14396 12 ft 15 kts 270°
2026-05-06 02:42 26.06691 -80.14515 12 ft 15 kts 270°
2026-05-06 02:42 26.06692 -80.14635 12 ft 15 kts 271°
2026-05-06 02:42 26.06693 -80.14758 12 ft 15 kts 270°
2026-05-06 02:42 26.06694 -80.14866 12 ft 9 kts 270°
2026-05-06 02:43 26.06728 -80.14922 12 ft 10 kts 353°
2026-05-06 02:43 26.06768 -80.14872 12 ft 10 kts 90°
2026-05-06 02:43 26.06767 -80.14789 12 ft 11 kts 90°
2026-05-06 02:43 26.06768 -80.14700 12 ft 11 kts 89°
2026-05-06 02:44 26.06768 -80.14623 12 ft 8 kts 89°
2026-05-06 02:44 26.06806 -80.14576 12 ft 8 kts 36°
2026-05-06 02:44 26.06818 -80.14518 12 ft 7 kts 90°
2026-05-06 02:44 26.06819 -80.14461 12 ft 5 kts 89°
2026-05-06 02:45 26.06840 -80.14435 12 ft 5 kts
2026-05-06 02:45 26.06870 -80.14433 12 ft 2 kts
2026-05-06 02:45 26.06874 -80.14433 12 ft 0 kts